| time (UTC) | temp C | wind direction | speed KPH | gust KPH | rain 1hr cm | rain 24hr cm | rain mn cm | humidity % | barometer mb |
| 20260506201532 | 9 | 52 | 1.6 | 9.7 | 0.03 | 2.18 | 2.16 | 96 | 1005.1 |
| 20260506200035 | 10 | 57 | 3.2 | 11.3 | 0.03 | 2.18 | 2.16 | 96 | 1004.7 |
| 20260506194522 | 10 | 109 | 3.2 | 11.3 | 0.00 | 2.16 | 2.13 | 96 | 1004.7 |
| 20260506193021 | 11 | 132 | 3.2 | 9.7 | 0.03 | 2.24 | 2.13 | 96 | 1004.7 |
| 20260506191518 | 12 | 296 | 3.2 | 6.4 | 0.05 | 2.29 | 2.13 | 96 | 1004.8 |
| 20260506190006 | 12 | 105 | 0.0 | 4.8 | 0.10 | 2.29 | 2.13 | 96 | 1004.4 |
| 20260506184508 | 14 | 107 | 0.0 | 3.2 | 0.18 | 2.29 | 2.13 | 96 | 1004.5 |
| 20260506183006 | 14 | 119 | 1.6 | 3.2 | 0.20 | 2.26 | 2.11 | 96 | 1004.5 |
| 20260506181505 | 13 | 150 | 0.0 | 3.2 | 0.20 | 2.24 | 2.08 | 96 | 1004.8 |
| 20260506180013 | 13 | 250 | 0.0 | 3.2 | 0.25 | 2.18 | 2.03 | 96 | 1004.9 |
| 20260506174505 | 13 | 150 | 0.0 | 3.2 | 0.25 | 2.11 | 1.96 | 96 | 1004.9 |
| 20260506173006 | 13 | 261 | 0.0 | 3.2 | 0.33 | 2.06 | 1.91 | 96 | 1005.0 |
| 20260506171507 | 13 | 149 | 0.0 | 3.2 | 0.41 | 2.03 | 1.88 | 96 | 1005.0 |
| 20260506170009 | 13 | 30 | 0.0 | 3.2 | 0.36 | 1.93 | 1.78 | 96 | 1005.3 |
| 20260506164506 | 13 | 157 | 0.0 | 3.2 | 0.36 | 1.85 | 1.70 | 96 | 1005.4 |
| 20260506163006 | 13 | 161 | 0.0 | 3.2 | 0.33 | 1.73 | 1.57 | 96 | 1005.5 |
| 20260506161510 | 12 | 167 | 1.6 | 3.2 | 0.33 | 1.63 | 1.47 | 96 | 1005.5 |
| 20260506160016 | 12 | 146 | 0.0 | 3.2 | 0.38 | 1.57 | 1.42 | 96 | 1005.8 |
| 20260506154508 | 12 | 90 | 0.0 | 4.8 | 0.41 | 1.47 | 1.32 | 96 | 1005.9 |
| 20260506153008 | 12 | 103 | 0.0 | 3.2 | 0.43 | 1.40 | 1.24 | 96 | 1006.0 |
| 20260506151513 | 12 | 78 | 0.0 | 3.2 | 0.43 | 1.30 | 1.14 | 96 | 1006.1 |
| 20260506150008 | 12 | 78 | 0.0 | 3.2 | 0.43 | 1.19 | 1.04 | 96 | 1006.2 |
| 20260506144508 | 12 | 109 | 0.0 | 3.2 | 0.41 | 1.09 | 0.94 | 96 | 1006.5 |
| 20260506143015 | 12 | 129 | 1.6 | 6.4 | 0.36 | 0.97 | 0.81 | 96 | 1006.9 |
| 20260506141512 | 12 | 140 | 0.0 | 3.2 | 0.30 | 0.86 | 0.71 | 96 | 1007.1 |
| 20260506140012 | 12 | 145 | 0.0 | 3.2 | 0.25 | 0.76 | 0.61 | 96 | 1007.1 |
| 20260506134514 | 12 | 145 | 0.0 | 3.2 | 0.23 | 0.69 | 0.53 | 96 | 1006.9 |
| 20260506133014 | 12 | 74 | 0.0 | 3.2 | 0.23 | 0.61 | 0.46 | 96 | 1006.7 |
| 20260506131513 | 12 | 49 | 0.0 | 3.2 | 0.25 | 0.56 | 0.41 | 96 | 1006.7 |
| 20260506130016 | 12 | 232 | 0.0 | 3.2 | 0.28 | 0.51 | 0.36 | 96 | 1006.7 |
| 20260506124514 | 11 | 268 | 0.0 | 0.0 | 0.25 | 0.46 | 0.30 | 95 | 1007.0 |
| 20260506123016 | 11 | 268 | 0.0 | 3.2 | 0.20 | 0.38 | 0.23 | 95 | 1007.1 |
| 20260506121516 | 11 | 166 | 0.0 | 4.8 | 0.13 | 0.30 | 0.15 | 95 | 1007.3 |
| 20260506120020 | 11 | 207 | 0.0 | 3.2 | 0.05 | 0.23 | 0.08 | 95 | 1007.4 |
| 20260506114512 | 11 | 315 | 3.2 | 4.8 | 0.03 | 0.20 | 0.05 | 95 | 1007.1 |
| 20260506113013 | 11 | 287 | 0.0 | 3.2 | 0.00 | 0.18 | 0.03 | 95 | 1006.9 |
| 20260506111515 | 11 | 177 | 0.0 | 3.2 | 0.03 | 0.18 | 0.03 | 95 | 1006.8 |
| 20260506110023 | 11 | 257 | 0.0 | 3.2 | 0.03 | 0.18 | 0.03 | 95 | 1006.9 |
| 20260506104519 | 11 | 109 | 1.6 | 3.2 | 0.03 | 0.18 | 0.03 | 94 | 1006.7 |
| 20260506103026 | 11 | 360 | 0.0 | 4.8 | 0.03 | 0.18 | 0.03 | 94 | 1007.0 |
| 20260506101520 | 11 | 290 | 0.0 | 3.2 | 0.00 | 0.15 | 0.00 | 93 | 1007.0 |
| 20260506100016 | 11 | 312 | 0.0 | 3.2 | 0.00 | 0.18 | 0.00 | 93 | 1007.0 |
| 20260506094526 | 11 | 298 | 0.0 | 3.2 | 0.00 | 0.18 | 0.00 | 92 | 1006.6 |
| 20260506093012 | 11 | 298 | 0.0 | 3.2 | 0.00 | 0.18 | 0.00 | 92 | 1006.7 |
| 20260506091506 | 11 | 298 | 0.0 | 3.2 | 0.00 | 0.18 | 0.00 | 92 | 1006.6 |
| 20260506090004 | 11 | 280 | 0.0 | 3.2 | 0.00 | 0.18 | 0.00 | 91 | 1006.9 |
| 20260506084503 | 11 | 225 | 0.0 | 3.2 | 0.00 | 0.18 | 0.00 | 91 | 1006.8 |
| 20260506083023 | 11 | 288 | 0.0 | 3.2 | 0.00 | 0.18 | 0.00 | 90 | 1007.1 |
| 20260506081516 | 11 | 303 | 0.0 | 3.2 | 0.00 | 0.18 | 0.00 | 90 | 1007.2 |
| 20260506073008 | 11 | 268 | 1.6 | 4.8 | 0.00 | 0.18 | 0.00 | 89 | 1007.8 |
| 20260506071507 | 11 | 284 | 1.6 | 4.8 | 0.00 | 0.18 | 0.00 | 89 | 1007.7 |
| 20260506061516 | 12 | 265 | 3.2 | 6.4 | 0.00 | 0.18 | 0.00 | 89 | 1008.0 |
| 20260506044522 | 13 | 265 | 1.6 | 3.2 | 0.00 | 0.18 | 0.00 | 89 | 1007.8 |
| 20260506043018 | 14 | 254 | 1.6 | 9.7 | 0.00 | 0.18 | 0.00 | 87 | 1008.2 |
| 20260506041513 | 15 | 276 | 3.2 | 12.9 | 0.00 | 0.18 | 0.00 | 86 | 1008.3 |
| 20260506040009 | 15 | 292 | 1.6 | 6.4 | 0.00 | 0.18 | 0.00 | 85 | 1008.3 |
| 20260506034528 | 15 | 281 | 3.2 | 11.3 | 0.00 | 0.18 | 0.18 | 85 | 1008.1 |
| 20260506033024 | 15 | 274 | 3.2 | 11.3 | 0.00 | 0.18 | 0.18 | 85 | 1008.1 |
| 20260506031525 | 16 | 323 | 3.2 | 14.5 | 0.00 | 0.18 | 0.18 | 85 | 1007.9 |
| 20260506030022 | 16 | 295 | 3.2 | 8.0 | 0.00 | 0.18 | 0.18 | 84 | 1007.5 |
| 20260506024521 | 16 | 209 | 3.2 | 11.3 | 0.00 | 0.18 | 0.18 | 84 | 1007.4 |
| 20260506023014 | 15 | 253 | 3.2 | 14.5 | 0.00 | 0.18 | 0.18 | 91 | 1007.5 |
| 20260506021511 | 13 | 301 | 0.0 | 0.0 | 0.00 | 0.18 | 0.18 | 93 | 1007.5 |
| 20260506020028 | 13 | 301 | 0.0 | 3.2 | 0.00 | 0.18 | 0.18 | 93 | 1007.5 |
| 20260506014527 | 14 | 301 | 0.0 | 3.2 | 0.00 | 0.18 | 0.18 | 92 | 1007.2 |
| 20260506013025 | 14 | 301 | 0.0 | 3.2 | 0.00 | 0.18 | 0.18 | 91 | 1006.9 |
| 20260506011520 | 15 | 274 | 0.0 | 3.2 | 0.00 | 0.18 | 0.18 | 88 | 1006.6 |
| 20260506010018 | 16 | 274 | 0.0 | 3.2 | 0.00 | 0.18 | 0.18 | 85 | 1006.4 |
| 20260506004516 | 16 | 326 | 0.0 | 8.0 | 0.00 | 0.18 | 0.18 | 85 | 1006.4 |
| 20260506003028 | 15 | 282 | 1.6 | 11.3 | 0.00 | 0.18 | 0.18 | 86 | 1006.2 |
| 20260506001507 | 15 | 317 | 3.2 | 12.9 | 0.00 | 0.18 | 0.18 | 88 | 1005.7 |
| 20260506000003 | 15 | 329 | 0.0 | 0.0 | 0.00 | 0.18 | 0.18 | 88 | 1005.8 |
| 20260505234548 | 15 | 294 | 0.0 | 4.8 | 0.00 | 0.18 | 0.18 | 84 | 1005.6 |
| 20260505233022 | 16 | 319 | 3.2 | 6.4 | 0.00 | 0.18 | 0.18 | 85 | 1005.7 |
| 20260505231517 | 16 | 331 | 3.2 | 6.4 | 0.03 | 0.18 | 0.18 | 84 | 1005.4 |
| 20260505230016 | 16 | 346 | 3.2 | 8.0 | 0.03 | 0.18 | 0.18 | 83 | 1005.2 |
| 20260505224518 | 16 | 325 | 4.8 | 12.9 | 0.03 | 0.18 | 0.18 | 83 | 1005.1 |
| 20260505223010 | 16 | 319 | 3.2 | 20.9 | 0.03 | 0.18 | 0.18 | 81 | 1005.3 |
| 20260505221524 | 17 | 300 | 12.9 | 22.5 | 0.00 | 0.15 | 0.15 | 77 | 1005.5 |
| 20260505220023 | 17 | 304 | 11.3 | 22.5 | 0.00 | 0.15 | 0.15 | 73 | 1005.6 |
| 20260505214524 | 18 | 279 | 16.1 | 29.0 | 0.00 | 0.15 | 0.15 | 66 | 1005.7 |
| 20260505213019 | 18 | 270 | 9.7 | 24.1 | 0.00 | 0.15 | 0.15 | 65 | 1004.9 |
| 20260505211518 | 19 | 286 | 9.7 | 30.6 | 0.00 | 0.15 | 0.15 | 63 | 1004.6 |
| 20260505210014 | 20 | 302 | 12.9 | 48.3 | 0.00 | 0.15 | 0.15 | 62 | 1004.8 |
| 20260505204517 | 21 | 292 | 12.9 | 27.4 | 0.00 | 0.15 | 0.15 | 64 | 1004.3 |
| 20260505203027 | 21 | 339 | 6.4 | 12.9 | 0.08 | 0.15 | 0.15 | 69 | 1003.3 |